Flag for Norway Weather past 2 weeks in Søgne, Norway

Now
60 °F

Cool.


Feels Like: 59 °F
Forecast: 53 / 64 °F
Wind: 8 mph from East

Location: Oksoy Fyr

Current Time: Sep 17, 2014 at 12:20:11 PM

Latest Report: Sep 17, 2014 at 11:00 AM


Visibility: N/A

Pressure: 30.26 "Hg

Humidity: 81%

Dew point: 54 °F

Location of SøgneLocation

Historic Weather in Søgne — Graph

°F

Søgne temperature yesterday

Maximum temperature yesterday: 60 °F (at 1:00 PM)
Minimum temperature yesterday: 55 °F (at 11:00 PM)
Average temperature yesterday: 58 °F

Past Weeks' High & Low Weather Summary

 TemperatureHumidityPressure
High67 °F (Sep 9, 2:00 PM)95% (Sep 4, 7:00 AM)30.45 "Hg (Sep 4, 7:00 AM)
Low52 °F (Sep 8, 3:00 AM)57% (Sep 14, 3:00 PM)29.79 "Hg (Sep 9, 7:00 AM)
Average59 °F84%30.18 "Hg
* Reported Sep 2 11:00 AM — Sep 17 11:00 AM, Søgne, Weather by CustomWeather, © 2014

Note: Actual official high and low records may vary slightly from our data, if they occured in-between our weather recording intervals... More about our weather records

Advertising

Søgne weather history for previous 24 hours

 ConditionsComfort  
Time TempWeatherWind HumidityBarometerVisibility
11:00 AM
Sep 17
60 °FCool.8 mph81%30.26 "HgN/A
10:00 AM58 °FCool.8 mph85%30.26 "HgN/A
9:00 AM56 °FCool.7 mph89%30.26 "HgN/A
8:00 AM55 °FCool.7 mph90%30.26 "HgN/A
7:00 AM54 °FCool.7 mph89%30.25 "HgN/A
6:00 AM55 °FCool.7 mph89%30.25 "HgN/A
5:00 AM54 °FCool.7 mph87%30.26 "HgN/A
4:00 AM55 °FCool.7 mph87%30.27 "HgN/A
3:00 AM55 °FCool.7 mph85%30.27 "HgN/A
2:00 AM55 °FCool.7 mph84%30.28 "HgN/A
1:00 AM55 °FCool.7 mph86%30.28 "HgN/A
12:00 AM55 °FCool.7 mph85%30.29 "HgN/A
11:00 PM
Sep 16
55 °FCool.6 mph85%30.29 "HgN/A
10:00 PM56 °FCool.6 mph82%30.30 "HgN/A
9:00 PM58 °FCool.7 mph81%30.29 "HgN/A
8:00 PM59 °FCool.10 mph75%30.29 "HgN/A
7:00 PM59 °FCool.12 mph73%30.29 "HgN/A
6:00 PM59 °FCool.12 mph73%30.29 "HgN/A
5:00 PM59 °FCool.14 mph65%30.29 "HgN/A
4:00 PM59 °FCool.14 mph73%30.31 "HgN/A
3:00 PM59 °FCool.14 mph69%30.31 "HgN/A
2:00 PM60 °FCool.14 mph71%30.32 "HgN/A
1:00 PM60 °FCool.14 mph65%30.33 "HgN/A
12:00 PM59 °FCool.14 mph72%30.33 "HgN/A
Weather by CustomWeather, © 2014

See weather overviewHow to use our weather pages